Glasgow, United Kingdom

8:14 AM BST on August 23, 2017 (GMT +0100)
Glasgow

Weather History for EGPF - August, 2013

Change the Weather History Date:

Wednesday, August 21, 2013

  Actual Average Record
Temperature  
Mean Temperature 62 °F -  
Max Temperature 68 °F 62 °F 69 °F (1997)
Min Temperature 55 °F 47 °F 39 °F (1999)
Degree Days  
Heating Degree Days 4    
Growing Degree Days 12 (Base 50)    
Moisture  
Dew Point 58 °F    
Average Humidity 88    
Maximum Humidity 100    
Minimum Humidity 73    
Precipitation  
Precipitation 0.00 in - - ()
Sea Level Pressure  
Sea Level Pressure 30.05 in    
Wind  
Wind Speed 7 mph ()    
Max Wind Speed 15 mph    
Max Gust Speed -    
Visibility 5.8 miles    
Events Rain    
Averages and records for this station are not official NWS values.
T = Trace of Precipitation, MM = Missing Value Source: Averaged Metar Reports

Daily Weather History Graph

Daily Weather History Graph

Search for Another Location

Airport or City:

Trip Planner

Search our weather history database for the weather conditions in past years. The results will help you decide how hot, cold, wet, or windy it might be!

Date:

Astronomy

Aug. 21, 2013 Rise Set
Actual Time 6:00 AM BST 8:39 PM BST
Civil Twilight 5:19 AM BST 9:20 PM BST
Nautical Twilight 4:24 AM BST 10:14 PM BST
Astronomical Twilight 3:14 AM BST 11:23 PM BST
Moon 8:17 PM BST (8/21) 6:39 AM BST (8/21)
Length of Visible Light 16h 01m
Length of Day
14h 38m
Full, 100% of the Moon is Illuminated
Aug 21
Full
Aug 28
Last Quarter
Sep 5
New
Sep 12
First Quarter
Sep 19
Full

Hourly Weather History & Observations

Time (BST) Temp. Dew Point Humidity Pressure Visibility Wind Dir Wind Speed Gust Speed Precip Events Conditions
12:20 AM 59.0 °F 55.4 °F 88% 30.12 in 6.2 mi SSE 8.1 mph - N/A   Mostly Cloudy
12:50 AM 59.0 °F 55.4 °F 88% 30.09 in 4.3 mi South 8.1 mph - N/A Rain Light Rain
1:20 AM 59.0 °F 55.4 °F 88% 30.09 in 4.3 mi SE 5.8 mph - N/A Rain Light Rain
1:50 AM 59.0 °F 57.2 °F 94% 30.09 in 4.3 mi SE 5.8 mph - N/A Rain Light Rain
2:20 AM 59.0 °F 57.2 °F 94% 30.06 in 5.0 mi SE 5.8 mph - N/A Rain Light Rain
2:50 AM 59.0 °F 57.2 °F 94% 30.06 in 6.2 mi Variable 3.5 mph - N/A   Overcast
3:20 AM 59.0 °F 57.2 °F 94% 30.06 in 6.2 mi South 5.8 mph - N/A   Overcast
3:50 AM 59.0 °F 57.2 °F 94% 30.04 in 3.1 mi SSW 10.4 mph - N/A Rain Light Rain
4:20 AM 59.0 °F 57.2 °F 94% 30.04 in 3.7 mi SSW 6.9 mph - N/A Rain Light Rain
4:50 AM 59.0 °F 57.2 °F 94% 30.04 in 6.2 mi SW 5.8 mph - N/A Rain Light Rain
5:20 AM 59.0 °F 57.2 °F 94% 30.04 in 6.2 mi Variable 3.5 mph - N/A Rain Light Rain
5:50 AM 59.0 °F 59.0 °F 100% 30.04 in 3.7 mi WSW 5.8 mph - N/A Rain Light Rain
6:20 AM 59.0 °F 59.0 °F 100% 30.04 in 6.2 mi SW 10.4 mph - N/A   Mostly Cloudy
6:50 AM 60.8 °F 59.0 °F 94% 30.04 in 6.2 mi SSW 8.1 mph - N/A   Mostly Cloudy
7:20 AM 60.8 °F 57.2 °F 88% 30.04 in 6.2 mi SW 11.5 mph - N/A   Mostly Cloudy
7:50 AM 60.8 °F 59.0 °F 94% 30.01 in 6.2 mi SW 10.4 mph - N/A   Mostly Cloudy
8:20 AM 60.8 °F 59.0 °F 94% 30.01 in 6.2 mi SW 5.8 mph - N/A   Mostly Cloudy
8:50 AM 62.6 °F 59.0 °F 88% 30.04 in 6.2 mi SSW 8.1 mph - N/A   Mostly Cloudy
9:20 AM 62.6 °F 59.0 °F 88% 30.04 in 6.2 mi SSW 12.7 mph - N/A   Mostly Cloudy
9:50 AM 62.6 °F 60.8 °F 94% 30.04 in 4.3 mi SSW 11.5 mph - N/A Rain Light Rain
10:20 AM 62.6 °F 60.8 °F 94% 30.04 in 4.3 mi SSW 9.2 mph - N/A Rain Light Rain
10:50 AM 62.6 °F 60.8 °F 94% 30.04 in 6.2 mi SW 11.5 mph - N/A   Mostly Cloudy
11:20 AM 64.4 °F 60.8 °F 88% 30.04 in 6.2 mi SSW 12.7 mph - N/A   Mostly Cloudy
11:50 AM 64.4 °F 60.8 °F 88% 30.04 in 6.2 mi WSW 8.1 mph - N/A   Mostly Cloudy
12:20 PM 62.6 °F 59.0 °F 88% 30.04 in 5.6 mi SW 13.8 mph - N/A Rain Light Rain
12:50 PM 64.4 °F 59.0 °F 83% 30.04 in 6.2 mi SW 11.5 mph - N/A   Mostly Cloudy
1:20 PM 64.4 °F 59.0 °F 83% 30.04 in 6.2 mi WSW 15.0 mph - N/A   Mostly Cloudy
1:50 PM 64.4 °F 59.0 °F 83% 30.04 in 6.2 mi SW 11.5 mph - N/A   Mostly Cloudy
2:20 PM 66.2 °F 59.0 °F 78% 30.04 in 6.2 mi SW 12.7 mph - N/A   Mostly Cloudy
2:50 PM 66.2 °F 59.0 °F 78% 30.04 in 6.2 mi SW 11.5 mph - N/A   Mostly Cloudy
3:20 PM 68.0 °F 59.0 °F 73% 30.04 in 6.2 mi SW 10.4 mph - N/A   Scattered Clouds
3:50 PM 66.2 °F 59.0 °F 78% 30.04 in 6.2 mi SW 12.7 mph - N/A   Scattered Clouds
4:20 PM 66.2 °F 59.0 °F 78% 30.04 in 6.2 mi WSW 9.2 mph - N/A   Scattered Clouds
4:50 PM 66.2 °F 59.0 °F 78% 30.04 in 6.2 mi WSW 10.4 mph - N/A   Scattered Clouds
5:20 PM 66.2 °F 59.0 °F 78% 30.04 in 6.2 mi WSW 8.1 mph - N/A   Scattered Clouds
5:50 PM 66.2 °F 59.0 °F 78% 30.04 in 6.2 mi WSW 11.5 mph - N/A   Scattered Clouds
6:20 PM 66.2 °F 59.0 °F 78% 30.04 in 6.2 mi WSW 9.2 mph - N/A   Scattered Clouds
6:50 PM 66.2 °F 59.0 °F 78% 30.06 in 6.2 mi WSW 5.8 mph - N/A   Partly Cloudy
7:20 PM 64.4 °F 59.0 °F 83% 30.06 in 6.2 mi WSW 5.8 mph - N/A   Partly Cloudy
7:50 PM 62.6 °F 59.0 °F 88% 30.06 in 6.2 mi SW 6.9 mph - N/A   Scattered Clouds
8:20 PM 62.6 °F 59.0 °F 88% 30.06 in 6.2 mi West 3.5 mph - N/A   Scattered Clouds
8:50 PM 60.8 °F 59.0 °F 94% 30.06 in 6.2 mi SW 4.6 mph - N/A   Scattered Clouds
9:20 PM 60.8 °F 57.2 °F 88% 30.06 in 6.2 mi Variable 2.3 mph - N/A   Partly Cloudy
9:50 PM 59.0 °F 57.2 °F 94% 30.09 in 6.2 mi NW 3.5 mph - N/A   Partly Cloudy
10:20 PM 59.0 °F 57.2 °F 94% 30.09 in 6.2 mi West 2.3 mph - N/A   Partly Cloudy
10:50 PM 57.2 °F 55.4 °F 94% 30.09 in 6.2 mi Calm Calm - N/A   Partly Cloudy
11:20 PM 55.4 °F 53.6 °F 94% 30.09 in 6.2 mi WSW 5.8 mph - N/A   Partly Cloudy
11:50 PM 57.2 °F 55.4 °F 94% 30.09 in 6.2 mi SW 4.6 mph - N/A   Partly Cloudy